Regional Weather Roundup
Issued by NWS

Home | Current Version | Previous Version | Graphics & Text | Print | Product List | Glossary On
Versions: 1 2 3 4 5 6 7 8 9 10 11 12 13 14 15 16 17 18 19 20 21 22 23 24 25 26 27
000
ASUS45 KSLC 241810
RWRUT

UTAH REGIONAL WEATHER ROUNDUP
NATIONAL WEATHER SERVICE SALT LAKE CITY UT
1200 PM MDT FRI MAR 24 2017

UTZ001>011-023>025-241900-

NORTHERN UTAH

CITY           SKY/WX    TMP DP  RH WIND       PRES   REMARKS
BRIGHAM CITY     N/A     48  32  53 SW6       30.24R
HILL AFB       SUNNY     48  34  57 S9        30.23R
LOGAN          SUNNY     49  35  58 CALM      30.21F
OGDEN          SUNNY     48  34  58 VRB5      30.22S
SALT LAKE CITY MOSUNNY   50  35  56 S13       30.22S
WENDOVER       SUNNY     46  28  49 E8        30.20F
HEBER CITY     SUNNY     46  30  53 CALM      30.21F

$$

UTZ011>015-024>027-241900-

CENTRAL/NORTHEAST UTAH

CITY           SKY/WX    TMP DP  RH WIND       PRES   REMARKS
PROVO AIRPORT  SUNNY     46  37  71 W7        30.25F
MOAB/CANYONLAN MOSUNNY   59  28  30 MISG      30.18S
DELTA          SUNNY     43  34  70 S3        30.26S
PRICE          SUNNY     50  29  44 VRB3      30.23R
ROOSEVELT      MOSUNNY   52  32  46 CALM      30.26S
VERNAL         MOSUNNY   52  30  43 VRB5      30.23R

$$

UTZ013>016-019>022-027-241900-

SOUTHERN UTAH

CITY           SKY/WX    TMP DP  RH WIND       PRES   REMARKS
BRYCE CANYON   SUNNY     44  18  35 VRB6      30.28R
CEDAR CITY     SUNNY     46  24  42 CALM      30.25S
MILFORD        SUNNY    N/A N/A N/A S12       30.25F
ST GEORGE      CLEAR     54  37  52 VRB3      30.26S
HANKSVILLE     SUNNY     55  28  35 CALM      30.24F
BLANDING       SUNNY     56  26  30 W10G17    30.24R

$$

REGIONAL REPORTS     COLORADO/ARIZONA

CITY           SKY/WX    TMP DP  RH WIND       PRES   REMARKS
CRAIG, CO      MOSUNNY   51  27  39 N8        30.19R
GRAND JUNCTION SUNNY     55  30  38 NW6       30.19R
RIFLE, CO      MOSUNNY   52  28  39 N10       30.17R
MONTROSE, CO   CLOUDY    50  30  46 NW9       30.19R
CORTEZ, CO     SUNNY     51  31  46 N17G25    30.14S
COLORADO CITY    N/A     54  30  40 NW3       30.29S
PAGE, AZ       SUNNY     56  32  40 N7        30.23R
GRAND CANYON   SUNNY     48  28  46 VRB5      30.29R
KINGMAN, AZ    SUNNY     62  21  20 NE5       30.25S
FLAGSTAFF, AZ  SUNNY     44  16  32 SW6       30.29R

$$

REGIONAL REPORTS    NEVADA/IDAHO/WYOMING

CITY           SKY/WX    TMP DP  RH WIND       PRES   REMARKS
LAS VEGAS, NV  MOSUNNY   66  27  23 NE7       30.21F
ELY, NY        SUNNY     49  23  36 S15       30.19F
ELKO, NV       SUNNY     55  26  32 S14G23    30.10F
POCATELLO, ID  SUNNY     52  21  30 S22G28    30.16S
BURLEY, ID     SUNNY     54  24  31 VRB7      30.09F
FORT BRIDGER,    N/A     44  29  55 SW3       30.25F
EVANSTON, WY   SUNNY     38  28  67 SW6       30.23S WCI  33
ROCK SPRINGS,  MOSUNNY   44  32  62 SW5       30.24R
KEMMERER, WY     N/A     37  23  56 W3        30.24S

$$




USA.gov is the U.S. government's official web portal to all federal, state and local government web resources and services.